RH
2 2 2 2 2 2 2 2 2 3 3 3 3 3 3 4 4 5 6 7 8 8 7 7 7 6 6 6 5 5 4 4 4 3 4 4 4 5 5 5 5 4 4 3 3 3 3 4 5 6 7 9 10 12 14 15 23 27 41 74 88 87 92 90 88 85 89 89 53 28 37 46 53 54 43 37 31 21 19 19 14 15 18 21 23 26 29 27
2 2 2 2 2 2 2 2 2 3 2 3 3 3 3 4 5 5 6 7 8 8 8 8 7 7 6 6 5 5 5 4 4 3 4 4 4 4 5 5 5 5 5 4 4 3 3 4 5 4 5 16 18 15 16 13 21 28 35 65 79 82 94 94 93 87 85 96 77 45 41 50 53 52 47 40 33 24 24 25 16 12 14 16 20 25 28 28
2 2 2 2 2 2 2 2 2 3 2 3 3 3 3 3 4 5 6 7 8 8 8 9 8 8 7 6 6 5 5 4 4 3 4 4 4 4 4 5 5 6 6 5 5 3 5 3 4 4 3 32 40 17 25 26 18 28 33 49 66 75 87 92 96 95 88 94 93 71 54 56 58 53 50 40 34 34 33 32 22 14 14 14 18 21 25 28
2 2 2 2 2 2 2 2 2 2 3 3 3 3 3 3 3 4 5 6 8 8 9 9 8 8 7 7 6 5 5 4 4 4 4 4 3 4 3 5 5 6 6 5 6 4 5 2 5 5 -3 35 47 10 26 41 22 30 35 40 59 69 77 83 87 92 94 94 97 92 72 66 69 65 61 45 38 42 36 36 30 17 14 13 16 19 24 30
2 2 2 2 2 2 2 2 2 2 2 3 3 3 4 4 4 4 5 6 7 8 9 9 9 9 8 8 7 6 5 4 4 4 4 4 4 4 3 5 4 5 6 5 7 4 6 4 3 5 7 49 66 21 15 24 16 37 43 34 53 71 77 80 81 85 91 94 96 99 87 78 80 79 74 57 51 52 36 34 35 20 15 15 16 19 22 28
2 2 2 2 2 2 2 2 2 2 2 3 3 4 4 4 5 6 7 8 8 8 9 9 9 9 9 8 7 6 5 4 4 4 4 4 4 4 3 4 4 4 5 5 7 6 6 6 3 7 25 65 73 31 10 9 13 47 56 33 43 70 80 80 80 81 85 93 97 99 98 90 86 85 82 70 62 56 35 30 35 21 14 17 17 20 23 25
2 2 2 2 2 2 2 2 2 2 2 3 3 4 5 5 7 8 9 10 10 10 10 10 9 9 9 8 8 6 5 4 4 4 4 4 3 4 4 4 4 4 5 6 6 7 5 6 6 6 29 61 47 12 7 9 7 35 51 32 32 59 77 79 76 76 79 89 94 96 101 97 90 85 82 78 69 59 38 27 31 21 13 18 19 22 23 23
2 2 2 2 2 2 2 2 2 2 2 3 3 4 5 6 7 9 11 12 12 13 11 11 10 10 9 8 7 6 6 4 4 4 3 4 3 3 4 3 4 4 4 6 5 7 6 6 6 4 30 52 25 4 9 8 11 28 36 28 26 42 63 73 72 72 73 80 87 91 96 98 98 90 83 82 78 70 48 27 27 21 14 19 21 22 22 22
2 2 2 2 2 2 2 2 2 2 2 3 3 4 5 6 8 10 12 13 14 13 12 11 10 9 8 7 7 6 5 5 4 4 3 3 3 3 4 3 3 4 4 5 5 5 5 6 6 6 27 35 13 6 5 6 32 42 26 20 24 31 47 60 65 68 67 69 76 83 89 92 97 95 87 84 83 81 58 32 29 21 15 20 21 22 22 23
2 2 2 2 2 2 2 2 2 2 2 3 3 4 6 7 9 11 13 15 15 14 12 11 9 8 7 6 6 5 5 5 4 4 4 3 3 3 3 3 3 4 3 4 4 4 5 6 6 6 12 15 7 7 7 20 50 46 20 14 19 24 33 44 53 59 62 64 64 69 78 83 88 92 92 88 85 86 64 36 31 23 16 22 23 22 23 24
2 3 2 2 2 2 2 2 3 3 2 3 3 5 7 8 11 13 16 17 15 13 11 9 8 6 6 5 5 5 4 5 4 4 4 3 3 3 3 3 3 3 3 3 4 4 5 6 7 8 6 8 8 6 11 25 32 22 14 14 16 20 25 32 42 47 54 60 60 59 64 73 78 83 90 92 89 87 67 41 35 26 17 22 25 23 23 24
3 3 3 3 3 2 2 3 3 3 3 3 4 6 8 10 13 16 18 17 15 12 10 8 7 5 5 5 4 4 4 4 4 3 4 3 3 3 3 3 3 3 3 3 4 4 5 6 7 9 8 9 9 7 12 17 12 9 12 13 13 15 17 23 29 36 44 51 57 56 57 64 68 73 84 92 93 90 72 47 39 29 19 23 25 24 24 24
3 3 3 3 3 3 3 3 3 3 3 3 5 7 10 13 16 19 19 16 13 10 8 6 5 5 4 5 4 4 4 3 4 3 3 3 3 3 3 3 3 3 3 3 4 4 5 7 7 9 10 10 10 11 19 22 16 13 12 11 21 29 28 26 22 25 33 42 54 55 55 59 59 68 82 88 93 95 81 54 42 34 21 22 26 25 24 24
3 3 3 3 3 3 3 3 3 3 3 4 7 9 13 17 19 20 18 14 11 8 7 5 5 5 4 4 4 4 4 3 3 3 3 3 3 3 3 3 3 3 3 3 3 4 5 6 8 9 11 11 10 11 17 19 17 16 16 20 39 54 51 42 29 21 26 37 49 53 55 57 60 73 84 88 92 96 90 60 42 38 25 21 25 26 26 24
3 3 3 3 3 3 3 3 3 3 4 5 8 12 16 20 21 20 16 12 9 7 5 5 5 5 4 4 4 4 3 3 3 3 3 3 3 3 3 3 3 3 3 4 3 4 5 5 7 9 11 12 12 13 14 18 21 18 19 27 44 55 54 50 37 24 25 33 43 50 52 53 62 79 88 91 92 95 95 69 44 40 31 22 23 27 29 26
3 3 3 3 3 3 3 3 3 3 5 7 11 16 20 22 22 18 14 10 7 6 5 5 5 5 5 4 4 4 3 3 3 3 3 3 3 3 4 3 3 3 3 4 3 4 4 5 8 10 13 13 12 15 17 26 37 36 33 35 46 63 65 58 43 27 22 28 40 47 50 55 66 79 86 93 94 94 94 73 49 42 35 24 21 29 32 26
3 3 3 3 3 3 3 3 4 5 7 11 14 19 22 22 20 16 12 8 6 6 6 6 6 5 5 4 5 4 3 3 3 3 3 3 4 3 3 3 3 4 3 3 3 4 4 5 8 9 12 13 13 16 19 28 40 50 56 47 49 68 69 59 52 42 28 23 34 44 50 59 68 74 79 89 95 95 94 77 54 43 38 28 19 26 33 28
3 3 4 4 3 3 4 3 4 7 10 13 17 22 24 22 19 14 9 7 6 7 7 7 6 5 5 5 5 4 4 4 3 3 3 3 4 3 4 4 3 3 3 3 3 3 4 5 7 9 11 12 14 16 21 33 39 44 59 58 56 65 58 50 50 43 29 21 27 39 50 53 59 74 82 90 98 96 94 78 56 47 43 32 22 23 29 30
3 4 4 3 4 3 4 4 4 8 10 14 22 27 26 21 17 12 8 6 6 7 7 7 6 5 4 4 4 4 4 4 4 4 4 4 4 4 4 3 3 3 3 3 3 4 5 5 6 9 11 10 14 17 17 33 42 38 42 44 52 69 70 55 39 27 21 20 23 32 46 49 55 79 92 96 99 97 96 81 58 51 50 39 31 27 26 29
4 3 4 4 4 3 4 4 5 8 10 18 28 30 26 20 15 10 7 7 7 8 9 8 6 5 4 3 3 3 3 4 4 4 4 4 4 4 4 4 3 3 3 3 3 4 4 5 6 6 8 7 12 18 17 25 32 29 27 22 30 56 72 56 29 20 18 17 23 29 41 49 54 75 94 100 99 95 97 89 67 58 57 45 40 37 26 23
4 3 4 4 4 4 4 4 5 8 12 23 30 30 26 21 14 9 7 7 8 9 10 9 7 5 4 4 3 3 3 3 3 3 4 4 4 4 4 3 3 3 3 3 2 4 4 4 5 4 6 6 7 12 18 23 24 25 26 20 17 26 46 51 30 21 20 18 24 27 36 48 54 69 88 99 100 96 98 91 75 69 68 54 46 49 36 20
4 4 4 4 4 4 4 4 5 8 15 25 29 29 27 21 13 8 6 7 9 11 11 10 7 5 4 4 4 4 4 3 3 3 3 3 3 3 3 3 3 3 3 3 3 4 4 4 5 4 4 5 6 6 12 17 19 23 22 19 22 20 31 46 34 22 21 21 24 27 34 47 60 74 85 94 99 97 96 90 82 82 83 69 54 54 45 25
4 4 3 4 4 3 4 4 5 9 17 24 28 31 28 21 12 7 6 8 10 12 12 10 7 6 5 5 5 4 4 4 4 4 3 4 3 3 4 3 3 3 2 3 3 4 5 6 5 6 5 4 4 4 7 11 14 20 18 19 34 35 30 36 36 35 30 23 25 28 31 42 61 77 79 86 98 96 90 89 88 89 88 80 67 55 45 33
4 4 4 4 4 4 4 4 6 11 17 23 29 31 28 21 12 6 7 9 11 13 12 9 8 6 6 5 5 5 5 5 4 4 4 4 4 4 4 3 3 3 3 3 3 5 6 6 5 6 6 5 5 5 6 10 14 19 18 19 28 29 30 37 38 40 38 27 26 27 32 42 52 67 71 72 86 92 93 94 90 87 85 83 80 61 45 39
4 4 4 4 4 4 4 4 8 11 16 24 30 31 29 22 11 6 8 9 12 14 12 10 8 7 6 5 5 5 5 5 4 5 5 4 4 4 4 4 4 3 4 4 5 6 6 6 7 7 6 6 6 6 6 10 14 18 20 21 22 19 26 34 29 30 34 31 28 26 36 50 49 53 65 71 78 84 93 99 93 89 88 88 87 68 49 43
4 4 4 4 5 4 4 5 7 10 17 25 29 32 30 21 10 7 9 11 13 14 13 11 9 8 6 5 5 5 5 6 5 5 5 5 5 4 5 5 5 4 5 5 5 6 6 6 7 7 8 8 8 8 7 9 14 20 21 19 22 22 22 26 25 25 30 34 40 35 33 53 63 57 60 71 80 84 88 96 97 93 90 92 89 69 50 45
5 5 5 5 5 5 5 6 6 10 19 26 30 34 30 19 11 8 9 14 15 14 14 12 9 8 5 5 5 5 6 6 6 6 5 5 5 5 6 5 5 6 6 6 7 7 6 7 8 8 8 9 9 11 9 8 13 19 20 18 22 24 21 25 28 26 28 34 44 45 37 46 68 73 70 75 84 88 92 98 99 94 91 95 87 59 44 46
5 5 5 5 5 5 6 5 5 10 18 27 32 34 29 19 12 9 10 15 16 15 15 13 9 7 6 6 5 5 6 6 6 6 5 6 5 5 5 5 6 6 5 7 9 8 7 8 9 9 10 11 11 11 10 10 14 17 17 20 23 22 20 24 26 26 33 37 35 39 39 39 55 71 74 79 83 84 90 97 99 96 94 98 84 50 37 42
6 6 6 6 6 6 6 6 6 8 15 27 33 34 30 22 15 11 10 14 17 16 15 14 10 7 6 5 5 6 6 6 7 6 6 6 6 5 5 5 5 6 7 8 9 8 10 11 11 13 12 12 13 13 12 11 15 16 17 23 24 21 23 25 25 27 35 39 31 31 35 36 52 67 69 76 79 77 82 89 96 100 98 100 90 58 37 38
7 7 6 7 7 7 7 6 7 7 10 20 32 37 33 25 19 13 10 14 16 15 15 15 11 8 7 5 6 6 5 7 6 6 7 6 6 6 5 6 6 7 6 7 9 9 10 11 12 15 16 15 14 14 14 13 14 16 17 23 24 22 25 26 27 29 32 35 27 27 36 37 51 67 67 71 74 73 80 85 91 99 98 101 100 77 49 38
7 7 7 7 7 7 8 7 7 7 6 12 25 36 34 27 21 14 12 15 16 15 15 14 12 10 8 6 6 6 6 7 6 7 7 6 8 6 5 7 5 7 10 10 12 11 11 15 16 16 16 17 16 14 15 14 14 18 18 21 25 25 25 23 25 26 26 30 29 36 43 33 46 70 69 67 68 69 79 85 91 98 99 99 101 95 75 52
8 8 8 8 8 8 8 8 8 7 7 7 15 28 32 29 23 16 14 14 14 15 14 12 12 12 10 7 6 6 6 7 6 8 7 6 9 5 6 7 1 16 37 34 26 21 15 12 14 19 17 16 17 15 17 16 14 16 18 25 31 31 30 28 34 38 31 29 32 42 47 32 40 64 64 64 69 67 70 79 88 97 100 99 97 98 94 77
8 8 8 8 8 9 9 9 9 8 8 8 10 19 28 30 26 21 17 13 12 14 13 11 11 12 12 9 6 6 6 7 7 7 7 7 8 5 7 6 2 16 34 31 26 40 50 34 16 18 18 17 18 16 20 25 23 20 22 34 39 42 47 37 34 39 33 41 53 50 48 42 39 45 48 59 72 70 66 69 79 90 97 100 99 94 91 89
9 8 8 9 9 9 10 10 10 10 9 9 9 13 21 29 29 25 20 15 11 12 12 11 10 11 13 11 8 7 6 7 7 7 7 6 7 7 6 7 8 9 13 21 24 38 66 64 37 25 22 21 21 18 21 26 27 24 26 37 46 59 71 56 46 45 35 54 80 67 51 47 43 47 53 57 63 71 75 73 74 82 89 95 100 98 91 90
9 9 9 9 9 10 11 11 11 12 10 10 10 10 15 25 30 29 24 18 15 13 12 12 11 11 13 12 10 8 7 7 7 6 7 6 6 8 7 8 12 9 12 35 41 35 50 55 35 25 24 22 23 23 19 20 32 35 27 34 46 56 63 52 52 59 45 52 76 72 57 47 45 58 70 66 57 61 75 81 79 78 82 87 92 99 100 92
10 10 9 9 10 11 12 13 13 14 13 12 11 10 12 18 25 28 28 24 19 16 15 14 13 13 13 13 11 9 7 7 7 6 6 7 6 7 9 10 12 13 14 27 39 43 59 62 36 22 27 27 25 27 20 22 47 53 32 33 45 45 45 44 44 44 37 45 66 72 61 49 50 64 76 76 67 61 66 79 87 81 77 83 85 90 98 96
10 11 10 9 10 11 13 15 16 17 16 15 13 12 12 13 19 27 30 27 22 18 18 17 16 17 14 12 11 8 7 7 7 7 6 6 7 7 10 12 12 16 16 19 25 28 44 63 49 25 27 32 27 27 25 21 36 46 36 39 48 41 36 38 40 36 31 39 61 76 72 61 61 68 76 78 73 68 67 75 91 87 75 79 83 85 89 94
11 11 11 10 10 12 14 16 18 20 20 19 17 15 13 12 17 26 31 30 26 23 22 20 19 19 17 14 11 8 7 8 6 7 7 6 9 11 12 12 12 14 16 19 26 24 26 53 66 41 27 36 30 25 36 34 29 33 34 38 51 53 45 36 35 37 37 44 60 74 78 74 67 67 76 81 75 73 73 74 85 84 75 75 78 83 86 84
12 11 11 11 11 12 14 16 19 22 24 24 23 20 17 15 16 22 29 32 30 28 26 25 23 22 20 17 13 9 7 8 7 7 8 7 9 12 12 11 11 13 15 14 19 25 22 42 75 62 31 32 35 35 49 48 34 33 35 33 40 48 46 43 43 44 46 59 71 75 78 79 74 71 76 80 75 76 80 78 78 77 75 77 76 77 81 80
12 12 12 12 12 12 13 15 18 21 24 27 28 26 22 19 17 19 26 31 33 32 30 29 27 26 26 23 18 14 10 8 8 7 8 7 7 9 9 10 10 10 14 14 14 22 23 29 57 61 40 36 43 51 56 47 38 43 45 41 39 40 41 42 46 51 56 65 71 71 77 80 76 75 78 78 72 75 89 93 85 80 78 78 75 71 71 76
12 12 12 12 12 13 13 15 17 19 22 26 30 31 27 24 21 19 23 28 32 34 32 31 30 29 30 28 23 19 14 11 11 8 8 7 6 8 8 8 10 8 10 13 12 16 22 22 33 49 52 46 42 46 47 42 42 45 43 41 41 44 47 42 40 48 59 67 66 64 72 76 74 76 77 72 65 69 89 99 93 86 82 76 73 69 62 64
12 12 12 13 13 13 13 15 17 18 20 23 29 34 32 28 25 21 23 27 29 32 32 32 32 31 33 34 29 23 18 15 13 10 9 8 7 8 8 7 7 7 7 9 8 10 14 13 17 30 39 35 32 39 42 36 37 41 42 42 40 42 45 46 52 59 63 66 65 66 72 72 74 85 82 70 67 69 75 87 91 84 79 78 75 72 65 64
12 12 12 13 13 13 14 15 16 18 19 21 27 35 36 32 28 24 24 28 29 31 34 34 34 36 37 37 34 29 24 20 17 14 11 9 8 7 8 7 7 7 7 6 7 7 7 10 13 14 18 21 23 32 41 39 38 45 47 42 41 43 42 48 60 64 64 65 63 67 71 64 66 88 92 76 73 74 68 78 91 85 78 80 80 81 81 82
12 12 12 13 14 14 14 15 16 18 19 21 26 34 39 38 33 27 25 29 31 33 36 37 37 39 40 40 39 35 30 26 21 19 16 12 11 9 8 8 7 7 8 7 7 6 5 11 13 8 17 35 38 34 43 50 46 45 44 40 45 46 39 43 49 49 55 62 59 58 64 62 60 81 97 85 76 78 73 76 88 89 85 84 84 87 91 94
12 12 12 13 14 14 15 15 17 18 19 20 23 32 42 43 38 31 27 29 32 35 38 40 40 42 43 43 43 40 36 31 25 21 19 15 13 12 10 9 8 8 8 7 7 6 5 7 8 4 10 33 49 44 40 48 53 48 43 44 54 57 48 44 42 42 49 51 44 44 57 65 65 76 92 91 82 79 79 81 86 89 90 91 92 92 92 95
13 14 14 14 14 15 15 16 17 18 19 20 21 28 41 46 42 36 32 30 32 35 38 41 42 44 45 45 46 45 42 38 33 28 23 20 17 14 11 10 9 8 8 8 7 7 6 5 6 7 7 13 27 28 20 26 40 47 49 49 53 57 54 48 44 45 47 45 37 35 45 59 66 72 81 91 91 84 83 90 90 83 82 86 90 93 91 94
15 16 16 14 15 15 16 16 17 18 19 20 20 25 37 46 46 41 37 34 33 35 37 41 43 45 46 47 48 49 47 45 43 40 35 31 26 20 16 14 12 10 9 8 9 7 7 6 5 9 14 15 18 20 17 17 20 29 45 54 53 52 52 52 52 46 42 45 43 34 36 50 63 71 77 89 94 85 83 91 87 78 78 79 81 86 89 91
18 20 20 18 15 15 15 17 17 18 19 20 21 23 31 42 47 45 43 40 38 37 37 40 44 46 47 49 49 49 49 48 48 47 46 44 38 31 24 19 15 13 10 9 10 8 5 7 9 12 16 20 22 21 19 18 15 20 37 50 53 55 53 51 51 45 42 47 44 34 35 45 55 66 77 89 96 91 85 83 76 74 80 81 77 75 77 82
25 27 27 24 19 15 14 16 16 18 18 18 21 25 29 37 46 49 48 46 44 41 40 41 44 47 48 49 50 51 50 50 50 50 51 51 47 40 32 27 21 15 12 11 9 7 5 7 12 17 18 22 26 23 18 17 16 18 31 45 51 56 57 51 46 46 53 56 43 30 33 39 44 55 70 87 98 95 85 77 71 70 76 81 78 71 68 73
33 35 35 33 26 18 14 14 15 15 16 17 22 29 33 36 42 50 52 52 49 45 43 44 45 46 47 48 50 52 53 52 51 53 54 54 51 43 36 32 28 20 15 12 8 6 7 9 13 15 16 25 35 29 17 15 17 21 32 43 47 51 54 52 46 43 55 64 50 30 28 33 38 45 57 79 98 93 81 82 81 73 72 80 83 76 69 70
38 41 44 44 39 28 18 13 13 14 14 16 21 32 41 41 40 48 55 55 52 50 48 47 46 46 47 48 51 55 57 55 53 55 57 54 49 43 36 30 28 23 14 9 7 5 5 9 13 14 16 27 36 31 20 16 17 24 32 37 40 46 50 52 51 44 46 59 56 38 28 29 33 37 46 73 97 94 84 89 90 80 78 83 84 78 70 67
44 48 51 54 53 45 31 20 15 15 14 15 21 35 48 49 43 48 57 57 54 54 52 50 49 48 49 51 54 58 58 57 58 59 60 58 49 41 35 28 24 22 14 7 6 6 5 8 11 15 19 23 26 26 25 24 24 28 37 39 38 41 45 49 52 48 44 51 56 50 41 37 36 37 44 62 82 88 85 86 86 85 87 85 80 81 80 73
Wind_Speed
11 12 12 12 13 13 13 13 14 14 14 14 13 13 12 11 10 11 11 12 13 13 13 13 13 13 12 12 11 11 10 10 10 9 9 9 9 8 9 9 8 8 8 7 7 7 7 7 6 5 4 4 4 5 7 8 8 7 5 6 6 6 9 9 4 3 4 5 10 12 12 12 11 10 9 7 7 8 7 8 9 9 9 10 9 8 7 6
11 11 12 12 13 13 13 13 13 13 14 14 14 14 14 13 12 11 12 13 13 14 14 14 14 14 13 13 12 12 11 11 10 10 10 10 9 9 10 10 9 8 9 9 8 9 9 8 8 7 6 4 4 5 6 8 8 7 6 6 6 6 8 7 4 2 3 4 8 12 12 12 11 10 9 8 7 6 5 6 6 7 7 9 9 8 8 6
11 11 12 12 12 13 13 13 13 13 14 14 15 15 15 14 14 13 13 14 14 14 15 15 14 14 14 13 13 12 12 12 11 11 11 10 10 11 10 10 9 10 10 10 10 10 10 10 10 9 8 5 4 5 5 6 8 8 6 6 6 5 7 7 5 4 1 3 6 10 13 12 10 9 8 8 6 5 4 4 5 5 5 6 8 8 8 7
12 12 12 12 13 13 13 13 13 14 14 15 16 16 17 16 15 14 14 15 15 16 16 16 15 15 14 14 14 13 13 12 12 12 11 11 11 11 11 10 10 11 11 11 11 11 11 11 11 11 10 6 4 5 6 7 9 9 7 7 5 5 6 6 6 4 4 3 5 9 12 12 10 8 8 6 6 5 4 5 5 5 4 4 6 7 7 7
13 13 13 13 13 13 13 14 14 14 15 16 17 18 18 18 17 16 14 15 16 17 17 17 17 16 15 14 14 14 14 13 12 13 13 13 12 12 12 11 12 12 12 12 12 12 12 12 12 13 11 6 4 5 6 8 9 8 7 8 7 6 6 6 6 5 5 4 4 7 10 12 11 10 10 6 6 6 5 6 6 6 5 4 4 6 6 7
14 14 14 14 14 14 14 14 14 15 16 17 18 19 19 19 18 16 15 14 15 16 17 18 18 17 16 16 15 15 14 13 13 14 14 14 14 13 13 12 12 12 12 13 13 13 13 13 13 13 10 7 6 6 7 8 9 8 8 10 9 8 7 6 6 6 5 5 4 4 6 9 11 12 11 8 7 6 5 6 7 7 7 5 5 5 6 6
15 15 15 15 15 15 15 15 15 16 17 18 19 20 20 19 18 17 15 14 14 15 16 17 18 18 17 17 16 15 15 14 14 14 14 14 14 14 14 13 13 13 13 13 14 14 15 14 15 15 11 9 9 7 7 9 9 9 10 12 11 10 9 8 7 7 6 5 5 4 4 7 11 13 12 10 8 6 6 6 7 7 7 7 6 6 6 5
15 16 16 16 16 16 16 16 16 17 18 19 20 21 21 20 18 17 16 15 14 15 15 16 17 17 17 18 17 16 15 15 14 14 14 14 14 14 14 14 14 14 14 14 15 16 17 16 17 16 12 11 11 9 9 9 8 8 10 12 13 13 12 9 8 8 8 7 6 6 6 7 10 14 13 10 10 9 7 7 8 7 7 8 7 6 5 4
16 16 16 16 16 16 16 17 17 18 19 20 21 21 21 21 19 18 16 15 15 15 15 15 16 16 16 17 17 17 15 15 14 14 14 14 14 14 14 15 15 15 15 16 17 18 18 18 18 17 14 13 11 11 12 9 8 10 11 13 14 14 14 12 10 9 9 9 9 9 8 8 10 14 14 11 11 11 8 8 9 8 8 8 7 6 5 4
16 16 17 17 17 17 17 18 18 19 20 21 21 22 22 21 19 18 16 15 15 15 15 15 15 15 15 16 16 16 15 15 15 15 15 14 15 15 15 15 15 16 17 17 18 19 20 20 19 17 17 15 12 13 13 9 10 12 11 13 14 15 15 14 13 11 10 9 10 10 10 10 11 15 16 13 13 12 10 10 10 9 8 8 7 6 5 4
16 17 17 18 18 18 18 18 19 20 21 21 22 22 22 20 19 17 15 15 16 16 15 15 15 14 14 14 14 14 14 15 15 15 15 15 15 15 15 15 16 17 17 18 19 20 21 21 19 19 18 15 13 14 13 12 12 12 12 13 14 15 16 16 15 14 13 11 11 12 11 11 12 14 17 17 16 14 12 12 12 11 10 9 8 7 6 5
17 17 18 18 18 19 19 20 20 21 21 22 22 22 21 20 18 16 15 16 16 16 16 15 14 14 13 13 13 13 13 14 15 15 15 15 15 15 15 15 16 17 18 19 20 21 22 21 21 20 18 16 14 14 15 14 13 13 13 14 15 15 15 17 17 16 15 13 12 13 11 11 14 14 16 20 19 17 14 13 13 12 11 10 10 8 6 6
17 18 18 19 19 19 20 21 21 22 22 22 22 22 21 19 16 15 15 16 16 16 15 14 13 13 12 12 11 11 11 12 13 13 14 14 14 14 15 15 15 16 17 18 20 21 22 21 21 20 18 17 16 14 15 15 14 14 14 15 14 14 15 17 18 17 16 14 14 14 12 13 15 14 17 21 21 20 17 15 15 14 13 12 11 9 7 7
18 18 19 20 20 20 21 21 22 22 22 22 22 21 19 17 16 15 16 16 16 15 14 12 11 11 10 10 10 10 10 11 11 12 12 13 13 13 13 14 14 14 15 16 18 19 21 21 21 20 19 18 17 15 15 16 16 15 15 15 13 12 16 18 18 18 18 16 15 14 13 14 14 13 17 20 22 23 19 17 17 15 14 14 12 10 8 7
18 19 20 20 21 21 21 22 22 22 22 22 21 20 18 16 16 16 16 16 15 14 12 11 9 9 9 9 9 9 9 9 10 10 11 11 11 11 11 12 12 12 12 13 15 17 19 20 21 20 19 18 17 16 16 16 16 16 16 15 14 14 16 18 18 19 19 18 17 15 14 14 13 12 16 21 25 25 20 18 18 17 15 15 13 11 9 9
19 20 20 21 21 22 22 22 22 22 22 21 20 18 17 16 16 16 16 16 14 13 11 9 8 7 7 7 8 8 8 8 8 9 8 8 8 9 9 9 9 9 9 10 11 14 16 18 19 19 19 19 18 17 17 16 15 15 16 16 15 14 14 16 18 19 20 20 18 16 14 12 12 11 12 19 27 25 21 19 19 18 16 16 14 12 11 10
19 20 21 21 21 22 22 22 22 22 21 20 19 17 16 16 16 17 16 15 14 12 10 8 6 5 5 5 7 7 6 7 7 7 7 6 7 7 7 7 7 7 7 8 9 11 13 15 17 18 19 19 19 19 18 18 18 17 17 17 17 15 15 16 17 19 21 21 19 17 15 11 11 10 10 16 26 26 23 20 21 20 17 17 15 13 12 12
20 20 21 21 21 22 22 22 21 21 20 19 17 16 16 16 17 17 16 15 13 11 9 7 4 2 2 3 3 4 5 5 5 6 6 6 6 6 6 7 7 7 7 8 9 10 11 12 15 17 19 19 20 21 21 21 22 22 20 18 16 17 18 18 19 20 21 21 20 18 16 12 11 10 9 15 26 28 24 22 22 21 18 17 16 14 14 13
20 21 21 21 21 22 22 21 20 20 19 17 16 16 16 16 17 16 15 13 11 8 7 5 3 2 2 1 1 2 3 4 4 5 5 5 6 6 6 6 6 7 8 9 9 9 10 12 13 16 18 19 20 22 24 23 22 22 22 21 18 16 17 20 23 23 22 21 21 19 17 13 11 9 9 15 28 29 24 23 23 22 19 18 17 16 15 14
20 21 21 21 21 21 21 20 20 19 17 16 15 16 16 17 16 15 14 12 10 8 6 5 4 4 3 2 1 1 1 2 3 4 5 5 6 7 7 7 7 8 8 8 9 10 11 11 12 15 15 16 18 21 24 24 22 22 23 23 22 19 18 21 24 23 23 22 20 20 18 14 12 10 9 16 28 29 24 23 23 22 20 18 18 17 16 15
21 21 21 21 21 21 20 20 19 18 16 15 15 16 17 17 16 15 13 12 10 7 6 5 4 5 4 3 3 2 1 1 2 3 5 5 6 6 6 7 8 8 9 9 9 11 11 11 12 14 13 15 18 21 23 24 24 23 22 22 24 23 21 24 25 23 23 21 20 20 18 15 13 11 10 15 25 28 24 22 22 22 20 19 19 18 17 15
21 21 20 20 20 20 20 19 18 17 16 15 15 15 16 16 15 14 12 11 9 7 6 5 5 6 5 5 4 3 3 2 1 1 3 4 5 5 6 7 7 8 9 10 10 11 11 12 13 14 14 14 16 18 21 24 25 24 23 21 22 23 23 24 25 23 23 21 20 20 19 16 14 12 10 14 22 26 25 23 22 22 20 19 20 19 17 15
21 20 20 20 20 19 19 18 17 16 15 15 15 15 16 15 14 12 11 10 8 7 7 6 6 6 5 5 4 4 5 4 3 1 0 2 3 4 5 6 7 9 10 10 11 11 12 13 14 13 13 14 15 17 19 23 24 25 25 22 21 22 23 24 24 21 22 22 21 20 19 18 15 13 11 13 18 24 27 25 22 23 23 21 21 19 17 16
20 20 20 20 19 19 18 17 16 15 14 14 15 15 15 15 13 11 11 9 7 7 7 7 6 5 4 4 5 5 6 5 5 4 2 1 1 3 5 6 8 9 9 10 10 11 14 14 14 14 14 13 14 16 18 21 24 26 26 24 23 23 23 25 25 22 21 21 22 20 18 19 18 16 13 12 14 19 25 28 25 25 26 24 21 19 18 18
20 20 19 19 19 18 18 17 16 15 14 14 14 15 15 14 12 11 10 8 7 8 7 7 6 5 4 4 4 5 6 6 5 4 3 2 1 2 3 5 7 8 9 10 10 12 15 15 15 15 14 13 13 14 16 19 23 26 26 26 26 25 25 26 27 25 21 20 22 20 17 18 19 19 15 13 13 15 21 29 29 27 26 23 20 20 20 20
19 19 19 19 18 18 17 16 15 14 14 13 14 14 14 14 11 10 9 8 7 8 8 8 7 6 5 4 4 5 6 6 5 4 3 2 2 2 3 4 6 7 9 10 12 14 16 16 16 16 15 13 12 12 15 18 20 24 27 28 26 26 27 27 27 26 22 21 22 21 19 18 17 18 15 12 13 14 17 26 32 29 24 22 20 21 22 21
19 19 19 18 18 17 16 16 15 14 13 13 13 14 14 13 11 9 8 8 8 8 8 8 7 7 7 6 5 5 6 5 4 4 3 2 2 2 3 4 5 7 9 10 12 14 15 16 16 16 15 13 12 13 15 15 17 23 27 26 26 27 27 27 28 27 24 22 22 21 20 19 17 15 12 9 11 13 14 21 31 30 24 21 20 21 24 23
19 19 19 18 18 17 16 15 15 14 13 13 13 13 13 12 10 8 7 7 8 8 8 8 8 8 8 7 6 5 5 5 4 3 3 3 3 3 3 4 5 7 8 9 12 13 14 15 16 16 15 14 14 15 15 14 17 22 24 23 27 29 28 28 29 27 25 24 23 23 21 20 20 16 12 9 10 12 12 16 28 32 26 22 21 22 24 25
19 19 19 18 17 17 15 15 14 14 13 12 12 12 12 12 10 8 7 7 6 7 8 8 8 8 9 9 7 6 5 4 4 3 3 3 3 3 4 4 5 6 7 9 11 12 12 14 14 14 14 15 16 16 15 15 17 20 21 23 28 29 28 30 30 28 28 26 24 23 21 20 20 18 15 12 12 12 10 12 21 33 32 23 21 23 24 26
19 19 19 18 17 16 15 15 14 14 13 12 11 12 12 12 10 8 8 6 5 6 6 7 7 7 8 9 9 8 6 5 5 3 3 3 3 3 4 4 5 6 8 9 11 11 12 13 13 13 14 15 16 16 15 15 17 19 21 23 27 29 29 31 31 29 29 27 23 21 22 21 20 19 17 14 13 12 11 10 13 26 33 26 22 24 25 25
19 19 19 18 17 17 16 15 14 14 13 12 11 11 11 11 10 9 7 7 6 6 5 6 6 6 7 8 8 9 8 7 6 4 3 3 3 4 4 5 6 6 8 10 10 10 12 12 12 14 14 15 16 16 15 15 17 19 20 23 25 27 29 30 31 30 28 26 24 21 23 23 20 19 18 17 15 13 12 11 9 15 25 26 23 23 25 25
19 19 19 18 18 17 16 15 15 14 13 12 11 11 11 11 10 9 8 8 7 6 5 5 5 5 6 7 7 8 8 9 8 6 4 3 4 5 5 5 6 5 5 6 8 10 11 12 13 13 14 14 15 15 15 15 17 19 20 22 23 26 28 29 29 28 27 27 26 23 23 22 20 21 21 18 17 15 14 13 11 12 17 24 25 24 24 25
19 19 19 18 18 17 17 16 15 14 13 13 11 11 11 11 10 10 9 9 8 6 5 5 4 4 5 7 7 7 7 8 8 7 5 3 4 6 6 7 6 5 5 7 8 7 7 11 13 13 13 14 14 14 15 15 16 18 20 22 22 22 24 27 28 28 28 27 25 25 23 19 21 24 25 21 16 16 16 16 14 14 14 19 25 26 25 25
20 20 19 18 18 17 17 17 16 15 14 13 12 11 11 11 11 11 10 10 8 7 7 5 4 4 5 7 8 8 7 7 7 7 6 4 4 6 7 8 7 7 7 7 9 7 5 9 13 12 12 13 13 14 14 15 16 16 19 22 21 18 18 22 25 26 28 27 25 27 23 20 22 24 23 22 19 16 16 16 17 17 15 16 19 25 27 25
20 20 19 18 18 17 17 17 16 16 15 13 12 12 12 11 11 11 11 10 9 8 7 6 5 5 5 7 8 8 7 7 8 7 6 5 5 6 8 8 7 8 7 5 7 7 7 11 14 13 13 13 12 14 14 15 16 16 19 21 21 20 20 23 24 23 27 29 28 26 23 22 24 22 19 21 21 18 17 17 17 18 17 16 15 19 25 27
21 20 19 18 18 17 17 17 17 16 15 14 13 12 12 12 12 12 12 11 9 8 8 7 6 5 5 6 8 9 8 8 8 7 7 6 5 6 7 8 8 8 8 6 8 7 5 10 15 13 13 13 13 14 14 15 15 16 18 19 21 23 24 26 28 28 29 30 27 22 21 25 26 23 20 19 20 20 20 18 17 17 17 16 16 16 20 25
21 20 20 19 18 17 18 17 17 16 15 15 14 13 12 12 11 11 11 11 10 9 8 7 6 6 5 6 8 9 9 9 9 8 8 7 7 7 6 7 7 8 9 8 9 9 7 9 14 14 13 14 13 14 16 17 17 18 18 18 18 21 24 26 27 29 31 31 27 19 20 27 28 23 20 20 20 20 21 21 18 17 18 17 17 17 18 23
21 20 20 19 18 18 17 17 17 16 16 16 15 14 13 12 11 10 11 11 10 9 8 8 7 7 6 6 8 9 9 10 10 9 8 8 8 7 7 7 7 8 8 9 10 11 9 8 11 15 14 14 14 14 16 17 18 19 20 19 17 17 21 24 26 28 29 29 28 21 20 26 27 24 21 20 20 19 20 22 20 18 19 18 18 18 18 21
22 21 20 20 19 18 18 18 17 16 16 16 16 15 13 12 11 11 11 11 11 10 9 9 8 7 7 7 8 8 8 9 10 10 10 9 8 8 8 7 7 8 8 9 10 11 11 8 8 13 15 14 16 14 15 18 18 18 21 20 19 17 20 22 23 27 27 26 26 23 23 26 25 23 23 20 19 19 19 22 22 20 20 20 19 19 19 21
22 22 21 20 20 19 18 18 17 17 16 17 17 15 14 13 13 12 11 11 11 11 10 9 9 8 8 8 9 9 9 9 10 11 12 11 10 10 9 8 8 8 7 9 9 9 12 10 9 13 16 15 17 15 15 18 17 18 20 20 19 19 21 23 23 24 25 25 27 24 24 26 23 21 22 20 19 19 19 21 22 21 21 21 21 21 20 20
23 23 22 21 21 20 20 19 18 17 17 17 17 16 15 15 14 12 11 11 11 11 11 10 9 8 9 9 9 9 9 9 9 11 13 13 12 12 11 9 9 9 8 9 10 9 11 12 11 14 16 15 16 17 17 19 18 19 21 21 20 19 19 22 24 24 23 24 27 26 25 24 22 21 21 21 21 20 19 21 22 20 20 21 21 21 21 21
24 24 23 22 22 21 21 20 19 18 18 18 17 16 16 16 14 12 11 11 11 11 11 10 9 8 9 8 8 8 8 9 9 11 13 14 14 14 13 11 11 11 10 10 11 10 11 13 13 14 16 16 18 18 19 20 21 22 23 22 23 22 21 20 21 21 23 24 26 26 25 23 20 21 22 23 23 22 19 20 22 21 20 20 20 20 20 20
26 25 24 23 23 22 22 21 20 19 19 18 18 17 17 17 15 13 12 12 12 11 11 10 8 8 9 8 8 8 9 10 10 12 15 16 16 16 15 14 13 13 12 12 12 10 11 14 14 15 17 18 18 19 19 20 23 24 24 23 23 24 24 23 21 21 22 24 24 24 25 24 22 22 24 25 25 25 22 21 21 21 20 19 19 18 16 16
28 27 26 24 24 23 23 22 21 21 20 19 18 18 17 17 16 14 13 13 13 12 11 9 8 8 9 8 8 8 9 10 11 12 15 17 18 18 17 17 16 14 13 14 13 11 12 14 14 15 16 16 16 18 18 19 22 24 25 25 25 25 25 26 26 26 25 25 24 23 25 26 24 23 26 27 27 27 25 22 21 19 19 18 17 17 15 14
29 29 27 26 25 24 23 23 22 22 21 19 19 18 18 18 17 15 14 14 13 12 11 9 8 9 9 8 8 9 10 11 12 12 14 16 19 20 20 19 18 16 15 15 14 14 14 15 16 17 17 16 16 18 19 20 20 21 22 25 27 26 25 27 27 27 29 28 26 26 27 25 23 23 26 28 30 29 26 24 22 19 17 16 15 16 16 17
30 30 28 27 26 25 24 24 23 23 22 20 20 19 18 19 18 16 15 15 14 13 12 10 9 9 9 9 9 10 11 13 13 13 13 15 18 20 21 21 20 18 16 15 15 15 15 17 18 19 20 20 20 21 22 22 21 20 20 21 25 27 26 26 27 29 30 28 28 29 29 27 24 22 25 30 32 31 28 26 23 19 15 15 16 17 16 17
32 31 29 28 27 26 26 25 24 24 23 22 21 20 19 19 18 17 16 16 15 14 12 11 10 11 10 10 10 11 12 14 14 14 14 14 16 18 20 20 20 19 18 15 15 14 14 16 18 18 19 21 22 22 23 24 23 21 20 19 22 25 26 26 26 27 28 28 29 31 29 28 27 23 24 29 34 34 31 27 21 18 16 14 16 17 15 16
32 31 30 29 28 28 27 26 25 25 24 24 23 21 21 21 20 19 18 17 16 15 14 13 12 12 12 12 11 11 13 14 14 14 15 15 16 18 18 19 19 18 17 16 14 13 13 15 16 16 17 18 19 20 21 23 22 20 19 19 19 21 25 27 25 24 27 28 30 32 30 29 30 26 25 29 34 35 33 28 22 18 17 16 16 17 16 16
31 31 30 30 29 29 28 27 26 26 26 26 25 24 23 23 22 22 20 18 17 17 16 14 13 14 15 14 12 12 14 15 14 15 16 16 16 17 18 19 18 15 15 15 15 13 13 14 14 14 15 16 16 16 17 19 19 19 18 17 17 19 22 25 24 24 27 27 28 31 32 31 31 30 29 28 30 33 33 29 27 24 19 17 17 17 17 15
30 30 30 30 30 29 29 28 27 28 28 27 27 26 25 24 24 24 22 20 19 19 17 16 16 17 17 15 13 13 15 16 15 15 16 16 16 16 17 18 17 14 13 15 15 13 13 13 12 13 14 14 13 13 13 14 15 16 16 16 16 17 19 22 24 25 27 26 26 29 32 33 32 33 33 29 28 34 32 24 25 29 25 19 17 14 14 14
30 30 30 30 30 30 30 29 28 28 29 28 28 27 26 27 26 25 24 23 22 21 19 18 19 19 17 15 12 13 17 18 16 15 16 17 16 16 16 16 15 13 12 14 14 13 13 13 12 12 12 13 12 11 10 11 12 14 16 16 16 16 17 20 22 23 25 26 25 27 31 33 33 33 34 30 26 28 25 16 16 26 25 19 16 12 11 12
30 29 29 29 29 29 30 30 29 29 29 29 29 28 28 28 27 26 26 25 24 22 21 20 20 19 17 14 13 16 19 18 16 16 17 17 17 16 16 16 14 12 12 14 14 13 12 13 13 13 12 12 11 10 10 9 11 14 15 16 16 16 16 17 19 21 22 23 23 25 27 31 33 32 32 32 29 24 22 15 15 19 17 15 15 11 9 9
Wind_Direction
27 26 25 24 23 23 22 22 20 18 15 11 5 357 346 331 314 299 290 287 289 292 293 292 292 292 291 289 288 288 289 288 285 282 273 267 265 259 253 252 251 252 259 263 263 258 253 252 250 246 229 214 209 188 179 181 175 175 155 126 114 107 143 151 115 152 173 164 169 175 176 172 172 171 172 173 175 178 172 163 152 147 144 138 135 131 132 132
20 18 16 16 15 14 14 14 14 13 11 8 3 357 349 337 321 305 293 286 285 289 292 293 292 291 290 289 288 287 287 285 280 275 270 268 264 259 254 253 252 250 250 254 256 257 256 253 251 247 238 218 207 187 171 177 177 180 169 153 145 117 132 136 93 111 183 189 171 178 183 179 185 185 177 174 175 178 176 166 151 148 147 139 138 139 139 139
13 11 9 8 7 7 6 6 7 6 6 3 0 356 350 341 327 310 297 287 283 283 287 290 292 291 290 290 289 287 284 282 277 274 269 265 262 258 256 253 252 249 247 247 251 256 257 257 256 252 245 225 204 184 165 179 182 184 183 173 171 149 141 138 119 105 117 182 173 181 188 189 198 200 188 173 160 162 170 168 151 144 151 142 139 143 140 136
8 5 3 2 1 0 359 359 359 359 359 358 356 353 349 343 334 319 302 290 282 280 281 285 288 290 291 290 289 287 283 279 275 272 267 262 258 256 255 251 248 247 246 246 248 253 255 258 261 259 255 240 217 192 171 182 185 185 190 186 191 185 167 155 148 130 105 141 181 185 190 198 208 216 211 184 152 158 175 178 164 148 154 155 143 141 138 137
3 0 358 356 355 354 354 353 353 353 353 352 351 349 347 343 337 328 313 298 287 281 279 280 284 287 290 290 289 287 282 276 270 267 265 262 258 255 253 248 245 245 246 246 246 250 252 255 259 263 263 248 229 212 195 193 185 186 200 196 195 196 184 178 171 155 123 122 176 190 192 200 212 226 228 207 172 176 186 187 179 160 154 165 156 143 140 145
359 357 355 353 351 350 349 348 348 348 348 347 346 345 343 340 335 328 319 308 297 288 282 280 281 284 287 288 288 286 283 275 268 265 264 264 262 259 255 249 246 243 244 246 246 248 250 251 254 258 256 238 231 227 218 212 192 185 206 204 197 201 197 191 185 172 155 137 158 196 204 209 218 229 231 216 200 198 192 190 190 173 155 160 163 150 149 159
356 354 352 350 349 347 346 345 344 344 344 343 343 342 340 336 331 324 316 308 302 296 289 285 282 282 284 285 285 284 283 278 271 267 264 263 261 259 257 253 248 243 241 243 245 247 248 249 251 254 251 242 246 247 235 229 213 194 205 208 201 206 207 202 198 187 182 170 164 188 213 225 228 234 233 216 210 216 203 196 201 186 161 158 164 161 164 174
354 352 350 348 347 345 344 343 342 341 341 341 340 339 337 333 327 321 314 307 302 298 294 289 285 282 281 281 282 282 282 278 273 269 264 261 259 256 255 253 251 246 240 239 242 244 246 247 248 250 247 243 251 257 247 241 235 220 215 212 206 210 213 209 210 205 198 192 186 194 213 231 232 237 240 222 215 224 214 203 208 199 172 161 169 172 170 174
351 349 348 346 345 343 342 342 341 339 338 338 338 337 334 331 325 319 314 308 304 301 296 292 288 283 280 278 278 279 278 275 273 270 265 261 257 254 252 250 249 247 243 239 239 242 244 245 247 248 246 246 251 256 253 249 246 239 229 221 214 215 218 215 216 219 214 206 203 205 217 233 234 240 244 230 221 225 218 208 209 206 186 167 173 179 167 172
349 347 346 345 343 342 342 341 340 338 337 337 337 335 333 329 324 320 316 311 308 304 299 294 291 286 282 278 275 275 273 272 271 267 264 260 256 254 252 249 247 246 244 242 240 242 244 245 247 248 248 251 252 254 256 250 244 244 240 235 227 221 222 222 221 224 226 221 217 217 223 232 238 242 240 233 228 225 216 211 209 206 196 175 173 181 170 176
346 345 345 344 342 342 341 341 339 338 337 337 337 335 333 329 325 322 318 315 313 308 303 298 294 290 286 282 278 275 270 268 268 265 263 260 258 256 253 250 247 245 245 244 244 244 245 246 246 246 248 250 250 252 255 250 246 248 246 245 242 234 229 228 225 227 230 229 229 232 234 237 245 249 242 236 234 227 214 212 210 206 201 184 175 182 178 177
344 343 343 342 341 341 341 340 339 338 338 338 337 335 333 331 328 325 321 319 316 312 308 302 297 293 290 286 282 277 271 266 265 263 262 259 257 255 252 251 247 245 244 243 244 246 247 247 245 245 247 247 246 248 254 255 253 253 250 248 250 247 242 237 232 230 233 234 236 242 246 246 250 254 248 241 235 227 216 211 210 206 204 193 181 184 180 178
341 341 341 340 340 340 340 340 340 339 339 339 338 337 334 332 330 327 324 321 317 314 311 305 300 296 292 288 282 278 272 267 264 262 260 258 256 253 251 250 247 246 245 243 244 246 248 248 247 246 246 245 244 245 249 254 255 254 253 251 253 258 255 249 242 236 237 238 241 248 253 256 257 253 250 243 231 225 217 209 209 205 203 199 187 184 180 185
339 339 339 339 339 339 339 340 341 341 340 340 340 338 336 334 331 328 324 321 318 316 312 308 304 299 294 288 282 278 273 269 265 261 259 258 256 253 251 250 249 247 245 244 244 246 247 248 248 246 243 242 242 241 244 251 254 253 253 252 253 258 257 254 248 241 241 243 244 250 256 263 265 260 255 242 225 221 216 208 207 203 203 203 193 183 180 189
336 337 337 337 337 337 339 340 341 342 342 342 341 340 338 335 331 327 325 323 321 320 317 315 311 305 297 290 283 277 273 269 264 261 259 257 254 250 248 248 247 245 244 242 242 244 245 245 245 245 243 241 239 239 241 246 251 250 250 250 248 249 255 258 255 246 242 242 245 250 257 267 266 266 263 239 220 217 213 207 205 202 203 205 196 183 182 192
334 335 335 336 336 336 338 340 342 343 344 344 343 341 338 334 330 328 328 327 326 324 323 323 319 309 298 292 288 280 273 266 260 258 254 250 246 244 244 243 242 242 241 239 237 238 241 242 242 241 239 236 234 233 236 241 246 249 248 245 244 247 254 259 258 253 245 241 244 249 257 272 270 269 265 232 214 211 209 205 205 202 203 206 198 183 187 197
331 333 333 334 335 335 337 339 342 344 345 345 343 341 338 333 330 330 332 331 330 329 328 327 324 311 299 295 290 283 276 265 257 253 247 241 237 236 237 238 238 239 239 240 238 236 238 240 239 238 235 232 229 228 230 235 235 235 239 238 239 245 248 250 253 253 248 242 241 246 255 272 274 269 263 226 208 204 204 204 203 201 202 207 200 186 193 201
329 331 332 333 333 334 336 338 341 344 345 345 343 341 337 333 332 334 335 334 333 332 331 331 326 318 310 299 285 280 279 270 260 253 244 238 235 233 233 237 240 240 242 245 244 243 240 238 237 236 234 228 225 222 222 228 229 227 230 231 234 244 248 248 248 248 247 243 238 242 250 262 267 263 264 230 206 200 203 203 201 200 201 206 201 192 197 203
327 329 330 331 332 332 334 335 339 343 344 343 342 340 337 334 335 336 337 336 335 334 335 336 341 11 17 3 282 271 272 268 265 258 250 248 245 242 240 242 246 246 246 247 248 247 240 237 235 233 233 228 224 222 221 225 229 229 229 228 229 241 248 246 245 246 246 244 239 239 244 252 259 256 262 235 208 198 199 200 200 199 199 204 202 198 202 203
325 328 329 331 331 331 332 333 337 341 342 341 339 338 337 336 335 337 339 339 337 339 344 347 358 9 17 32 26 298 266 259 257 254 251 251 250 249 248 247 251 252 252 251 249 246 241 240 237 237 239 234 226 223 223 226 229 231 232 231 229 233 243 248 247 246 247 246 242 240 241 244 251 249 249 231 210 199 197 200 201 198 197 202 203 202 205 205
324 326 328 329 329 330 330 331 334 337 339 337 336 336 336 335 335 338 341 342 342 345 348 354 5 8 11 21 28 40 22 278 241 246 247 246 245 246 247 247 251 254 255 253 248 247 246 244 242 242 242 235 229 224 222 226 229 232 235 234 234 233 239 250 250 247 246 246 243 241 241 241 246 245 239 228 214 206 204 205 203 197 194 198 203 203 204 205
324 325 327 328 328 329 329 329 331 334 335 335 334 333 333 333 336 338 342 345 346 349 352 358 5 7 10 14 21 28 14 3 337 250 239 241 243 245 246 246 251 254 255 255 253 252 251 248 246 245 243 238 237 231 226 226 227 231 236 236 239 237 236 245 250 248 246 245 243 241 240 239 241 242 236 228 221 216 216 214 206 200 196 196 202 202 199 203
323 324 326 327 327 328 328 328 329 329 332 333 332 331 330 331 334 337 344 348 347 349 353 360 3 3 8 14 17 16 11 13 20 19 244 238 239 242 249 251 255 257 257 257 256 254 253 252 251 250 249 245 243 239 233 229 226 228 233 234 237 237 237 243 246 247 247 243 242 239 237 237 237 239 239 233 228 225 226 223 210 203 201 197 201 201 195 200
323 324 325 326 327 327 328 327 326 325 327 329 330 329 327 328 332 338 346 349 347 346 348 356 0 2 10 18 17 16 20 24 23 15 10 341 247 244 251 252 256 259 258 259 256 252 251 253 254 252 252 250 247 245 240 233 228 228 230 232 235 234 236 241 241 242 243 242 241 237 236 240 239 240 247 249 243 237 235 229 214 204 202 198 200 199 192 198
323 323 324 326 326 327 327 325 323 321 323 325 327 327 324 326 333 338 344 346 346 343 343 348 354 2 14 18 20 27 27 23 18 11 4 353 324 278 263 253 253 254 253 253 249 247 250 252 254 256 257 256 253 251 245 239 234 232 232 232 235 234 233 238 241 241 242 243 245 237 231 240 243 244 251 260 260 256 246 232 217 207 202 197 198 197 191 197
322 323 324 325 326 327 326 324 321 320 321 322 325 325 323 325 332 337 341 343 343 341 340 342 345 351 5 10 18 31 30 19 14 11 3 348 324 300 277 259 256 254 251 250 247 249 254 255 257 260 262 261 259 254 246 241 237 237 237 233 235 237 236 237 241 243 239 237 243 238 227 232 244 248 251 260 265 265 258 236 218 210 204 196 194 194 192 196
322 323 324 324 325 325 325 323 320 319 320 320 323 324 322 324 330 335 338 336 334 335 337 341 341 341 348 357 7 22 27 18 11 1 350 342 320 304 288 272 264 260 256 255 254 256 259 259 260 262 264 262 258 251 245 238 234 237 237 234 236 240 239 236 237 241 239 234 237 238 228 224 235 245 244 255 267 265 264 241 220 210 204 197 193 192 192 194
321 322 322 323 323 323 323 322 320 319 318 319 321 322 320 322 325 330 334 328 326 332 335 338 338 334 337 343 350 8 20 17 8 353 342 334 320 309 299 284 271 268 265 260 260 264 265 263 263 264 265 262 254 249 245 237 233 237 237 233 236 239 238 236 235 236 237 235 235 237 232 223 229 238 238 247 263 261 262 246 222 210 204 200 194 191 193 195
319 319 319 320 321 321 322 320 319 317 317 317 319 320 319 318 318 321 322 317 319 330 331 332 333 329 331 334 334 344 2 8 3 355 344 333 322 314 303 291 285 281 276 268 268 274 274 270 271 270 267 262 256 252 245 237 235 237 235 230 233 236 236 237 236 233 234 234 231 234 235 226 227 237 237 241 256 259 264 261 231 215 209 203 194 191 194 197
316 316 316 317 318 319 320 318 317 317 315 314 314 317 317 314 314 315 313 306 309 323 326 327 325 321 324 326 325 328 336 350 353 346 342 337 321 313 305 301 302 294 288 282 278 278 276 275 275 272 268 264 262 257 248 240 236 236 231 227 231 234 234 236 236 233 234 236 231 231 234 227 225 234 235 240 252 256 260 271 249 220 211 203 195 194 195 198
312 312 312 314 315 317 317 316 316 316 314 311 310 311 312 311 309 308 304 296 294 306 318 322 317 312 316 316 316 320 322 332 338 335 338 340 325 313 309 307 306 303 295 287 284 281 279 279 278 275 271 266 265 262 254 244 237 235 231 227 230 234 236 238 239 236 236 238 233 230 233 226 223 233 234 237 246 248 252 258 258 232 216 204 197 196 197 200
307 308 309 310 312 313 314 314 314 314 314 311 307 305 306 307 305 300 294 287 285 290 302 312 308 300 301 300 301 307 312 320 323 325 331 331 326 318 310 307 303 302 291 277 286 287 279 276 275 275 275 271 267 265 260 250 239 236 232 227 229 234 235 236 238 237 236 236 232 230 232 224 219 231 234 235 240 240 243 245 242 241 225 209 202 198 196 200
303 303 305 307 309 310 310 311 312 312 313 311 307 303 300 300 300 295 287 283 282 284 288 294 293 285 281 284 289 292 298 305 306 312 318 315 320 315 306 302 293 286 270 261 276 281 281 291 286 277 275 272 268 264 264 259 245 236 232 228 229 234 237 236 237 236 234 235 235 231 229 221 217 228 232 233 238 239 238 239 237 236 229 218 212 207 200 200
301 300 302 303 305 306 307 308 309 309 310 310 308 302 296 295 295 291 284 281 282 283 287 291 289 284 275 272 278 282 284 283 283 291 298 304 313 308 301 297 284 279 271 261 266 248 235 283 289 281 274 271 268 264 262 262 256 240 232 231 229 231 237 237 239 239 232 231 236 230 223 218 217 224 231 232 231 235 238 236 238 238 234 230 223 215 211 210
300 299 298 299 301 303 303 304 305 306 306 307 306 302 296 293 290 287 285 285 284 284 286 290 291 288 276 263 265 274 277 274 275 280 285 295 303 299 294 287 281 281 272 258 270 258 234 257 272 274 274 272 268 265 259 258 261 250 235 233 231 230 233 230 231 235 229 226 232 231 222 219 219 219 227 232 225 225 234 235 235 238 238 239 235 221 218 220
300 297 295 295 296 298 300 302 302 302 302 302 302 301 297 292 287 286 287 286 282 279 280 283 287 287 278 259 254 260 266 271 276 278 281 286 287 286 284 282 284 285 278 267 269 269 251 264 275 274 271 273 267 263 259 252 256 254 240 236 236 232 231 229 228 230 229 226 230 231 221 219 222 218 220 229 224 217 224 230 230 231 234 239 241 232 224 225
300 297 293 291 291 294 296 298 299 300 299 298 298 298 297 294 289 286 284 281 277 275 277 279 282 283 279 262 251 252 260 269 275 276 278 281 282 281 278 280 286 286 286 281 273 270 256 264 284 282 270 272 270 263 261 253 250 253 247 245 247 238 231 231 230 231 232 228 227 230 219 217 220 217 217 225 223 215 218 223 224 228 232 236 239 240 234 230
299 297 291 287 287 289 292 294 296 296 295 295 295 295 296 294 288 281 277 275 274 274 275 276 277 279 277 268 257 253 258 266 274 278 280 281 282 284 282 282 284 281 282 281 278 282 274 264 289 290 275 272 274 267 263 258 252 253 253 248 246 240 235 234 230 229 232 228 228 230 221 218 217 213 217 224 219 216 218 219 223 229 235 237 238 240 241 238
297 296 290 285 284 285 287 290 291 292 292 292 292 292 293 288 281 276 272 271 272 274 275 274 278 283 283 278 268 260 256 261 272 279 280 280 281 283 285 283 283 280 281 283 281 286 285 265 270 291 289 281 278 273 266 263 256 254 256 254 249 243 239 237 230 227 229 229 231 228 219 219 215 209 217 222 217 219 220 219 223 229 236 240 239 238 241 244
293 293 289 284 282 281 283 285 287 289 289 289 289 289 287 282 278 275 271 270 270 273 275 275 280 287 288 284 276 267 260 258 267 274 275 278 280 280 282 282 282 282 282 287 287 289 291 276 260 284 297 286 275 273 268 267 263 255 255 256 254 249 242 237 233 228 227 230 235 233 227 225 216 209 216 219 220 226 222 219 223 227 234 240 241 241 242 246
289 290 288 284 280 278 279 281 283 285 285 286 286 285 282 278 277 275 271 269 268 269 272 273 278 284 286 285 278 272 267 261 262 267 269 273 274 274 278 280 281 284 281 280 283 283 286 284 273 280 291 285 278 278 273 269 267 260 259 257 253 254 250 241 237 233 229 231 235 235 233 230 218 212 218 220 224 229 225 222 224 225 231 237 241 244 248 254
285 287 286 283 278 275 275 277 279 281 281 282 284 281 278 276 275 273 270 267 265 265 268 270 275 281 283 283 279 275 273 267 261 258 258 262 265 268 274 276 274 278 279 276 277 276 276 281 280 277 281 285 284 283 278 272 268 261 258 257 254 256 256 247 242 241 234 232 235 235 234 229 218 215 220 221 224 228 227 225 223 222 226 234 239 243 254 262
283 284 284 281 276 272 272 273 275 277 278 279 280 278 274 273 273 270 266 264 265 265 266 268 274 280 282 282 281 278 276 272 263 253 251 253 259 264 266 268 269 272 278 281 280 280 277 277 278 279 282 284 282 281 277 272 268 262 256 253 251 251 253 253 253 250 244 239 237 236 234 228 220 218 218 220 222 225 227 224 218 220 225 230 235 237 249 258
281 281 281 278 273 269 268 269 271 273 274 275 276 274 271 270 269 266 263 263 264 265 265 266 269 275 279 281 284 286 284 280 270 258 254 252 254 259 260 263 268 271 275 281 283 283 280 276 276 281 284 284 283 283 277 267 263 261 258 257 253 249 249 253 255 252 251 249 242 239 236 230 225 222 219 218 221 223 226 223 217 221 225 227 233 231 229 232
278 278 277 274 271 267 265 265 267 269 270 270 271 272 269 267 266 264 261 260 262 264 265 264 263 269 275 279 284 290 287 283 277 269 262 257 255 256 257 260 266 269 270 276 280 279 277 276 278 281 279 275 277 280 276 270 266 261 260 258 255 251 245 245 250 252 252 251 246 244 243 237 233 231 224 219 220 223 223 220 217 218 219 220 227 229 221 216
276 275 274 271 268 265 263 262 264 265 266 267 267 268 267 264 263 261 259 258 258 260 262 260 256 260 270 277 282 286 284 279 277 274 270 265 262 260 260 263 266 267 268 271 273 272 272 275 278 281 280 275 274 275 272 270 268 265 264 260 255 255 251 244 244 249 252 251 246 242 244 246 244 240 232 223 221 224 219 214 214 213 211 213 218 223 222 214
273 272 271 268 265 263 261 260 261 262 263 264 264 264 263 262 260 258 256 256 256 256 258 256 251 252 259 267 274 280 281 278 277 278 278 275 272 269 268 268 269 269 269 268 268 268 269 274 278 281 283 281 279 277 271 267 266 264 267 267 262 260 259 252 245 245 249 252 248 239 239 246 245 241 237 227 220 221 217 211 212 209 206 211 213 215 220 219
270 269 268 266 263 261 259 258 259 259 260 260 261 261 260 259 257 255 253 254 256 257 256 254 251 250 253 258 267 274 278 279 281 286 288 286 283 280 278 276 274 272 271 269 269 268 270 276 284 287 286 285 283 278 270 264 262 262 263 266 266 262 260 257 251 248 249 252 249 242 238 243 240 237 239 229 217 215 215 212 213 210 204 207 213 216 219 221
266 266 265 264 262 261 259 257 257 257 257 258 259 259 258 257 255 254 252 251 252 254 254 253 250 249 250 255 261 268 274 279 286 292 295 292 286 283 280 279 279 274 269 268 269 270 273 278 286 291 291 291 288 281 269 259 255 257 260 263 264 262 260 258 253 251 253 251 245 240 239 240 237 234 237 230 214 208 210 214 217 215 208 203 207 215 217 218
262 263 263 262 261 259 258 256 255 255 255 256 256 256 255 254 253 252 252 250 248 248 248 247 246 248 250 253 258 266 271 276 284 290 292 290 285 282 279 278 279 275 263 262 264 266 270 275 282 291 295 297 294 284 270 256 249 252 258 261 262 260 257 256 252 249 251 251 243 236 236 236 235 235 236 227 209 203 209 217 215 211 209 202 195 198 205 211
259 260 261 261 260 258 257 256 254 254 254 253 253 253 253 252 251 251 252 251 248 247 245 243 246 250 253 255 258 264 266 270 277 284 285 285 282 282 279 276 276 270 255 254 259 261 264 268 275 285 293 299 300 291 275 259 250 251 255 258 261 261 256 254 251 248 248 252 248 236 233 234 236 239 237 226 212 211 222 229 202 197 202 200 194 198 205 208
257 258 258 259 260 258 256 255 253 253 252 252 252 252 250 250 248 248 250 251 249 249 247 245 246 249 251 251 252 257 261 266 273 277 280 281 280 281 281 278 275 263 250 249 255 259 261 264 269 276 285 295 297 291 281 266 255 252 253 255 256 259 259 253 248 246 245 249 249 238 235 238 240 242 242 233 226 231 241 235 201 193 197 194 194 207 213 210